{"data":{"norad_id":65927,"intl_designator":"2025-225T","name":"STARLINK-35494","alt_names":[],"object_type":"PAYLOAD","status":"ACTIVE","operator":null,"country":"US","launch_date":"2025-10-08","launch_site_code":"AFWTR","launch_vehicle":null,"mission":null,"orbit_class":"UNKNOWN","rcs_meters":null,"size_class":null,"mass_kg":null,"dimensions":null,"purposes":["comms"],"wikipedia_slug":null,"has_3d_model":false,"image_url":null,"decayed_at":null,"tle_current":{"epoch":"2026-09-20T12:07:46.470144Z","epoch_age_seconds":102671,"freshness":"FRESH","line1":"1 65927U 25225T   26263.50539896  .00015738  00000+0  47581-3 0  9990","line2":"2 65927  53.1593 337.3514 0001165  96.2027 263.9108 15.34408343 54285","mean_motion":15.34408343,"eccentricity":0.0001165,"inclination_deg":53.1593,"raan_deg":337.3514,"arg_perigee_deg":96.2027,"mean_anomaly_deg":263.9108,"bstar":0.00047581,"rev_number":5428,"period_min":93.847247805273,"perigee_km":461.88148816613,"apogee_km":463.47539816438,"semimajor_km":6840.8154431653,"source":"CELESTRAK","updated_at":"2026-09-21T09:00:35.765702Z"}}}